This demonstration page uses our WeatherBlox Daily Observations layout. Learn more.

Left ArrowRight Arrow

Hourly Observations for October 27, 2016

Temp ( °F °C ) Dew Point ( °F °C ) Humidity (%) Winds ( mph kmh ) Pressure ( in mb ) Visibility ( mi km ) Precip ( " mm )
12:17 am 00:17 Cloudy 55 13 54 12 94 94 S 3 6 30.03 1017 10 16.0934 N/A
12:36 am 00:36 Cloudy 55 13 54 12 94 94 S 6 9 30.03 1017 10 16.0934 N/A
12:57 am 00:57 Cloudy 57 14 54 12 88 88 SSW 7 11 30.03 1017 10 16.0934 N/A
1:17 am 01:17 Cloudy 57 14 54 12 88 88 SSW 8 13 30 1016 10 16.0934 N/A
1:37 am 01:37 Cloudy 59 15 54 12 82 82 SSW 9 15 30 1016 10 16.0934 N/A
1:57 am 01:57 Mostly Cloudy 59 15 55 13 88 88 WSW 9 15 30 1016 10 16.0934 N/A
2:17 am 02:17 Mostly Cloudy 61 16 55 13 83 83 WSW 12 19 30 1016 10 16.0934 N/A
2:37 am 02:37 Cloudy 61 16 55 13 83 83 SW 12 19 30 1016 10 16.0934 N/A
2:57 am 02:57 Cloudy 59 15 55 13 88 88 SW 10 17 30 1016 10 16.0934 N/A
3:16 am 03:16 Cloudy 59 15 55 13 88 88 SW 12 19 30 1016 10 16.0934 N/A
3:37 am 03:37 Cloudy 59 15 55 13 88 88 SW 12 19 30 1016 10 16.0934 N/A
3:57 am 03:57 Cloudy 59 15 55 13 88 88 WSW 10 17 30 1016 10 16.0934 N/A
4:16 am 04:16 Cloudy 59 15 55 13 88 88 WSW 12 19 30 1016 10 16.0934 N/A
4:37 am 04:37 Cloudy 59 15 57 14 94 94 WSW 12 19 30 1016 10 16.0934 N/A
4:57 am 04:57 Cloudy 59 15 57 14 94 94 WSW 12 19 30 1016 10 16.0934 N/A
5:16 am 05:16 Cloudy 59 15 57 14 94 94 W 14 22 30 1016 7 11.26538 N/A
5:37 am 05:37 Cloudy 57 14 55 13 94 94 WNW 18 30 30.03 1017 7 11.26538 N/A
5:57 am 05:57 Cloudy 55 13 54 12 94 94 WNW 12 19 30.03 1017 10 16.0934 N/A
6:16 am 06:16 Cloudy 54 12 50 10 88 88 WNW 18 30 30.09 1019 10 16.0934 N/A
6:37 am 06:37 Cloudy 54 12 50 10 88 88 WNW 17 28 30.09 1019 10 16.0934 N/A
6:57 am 06:57 Cloudy 52 11 50 10 94 94 WNW 16 26 30.09 1019 10 16.0934 N/A
7:16 am 07:16 Cloudy 50 10 48 9 94 94 WNW 15 24 30.12 1020 10 16.0934 N/A
7:37 am 07:37 Cloudy 50 10 48 9 94 94 WNW 14 22 30.12 1020 10 16.0934 N/A
7:57 am 07:57 Cloudy 50 10 48 9 94 94 WNW 15 24 30.12 1020 7 11.26538 N/A
8:16 am 08:16 Cloudy 50 10 48 9 94 94 WNW 13 20 30.12 1020 7 11.26538 N/A
8:37 am 08:37 Cloudy 48 9 46 8 94 94 WNW 15 24 30.15 1021 7 11.26538 N/A
8:57 am 08:57 Cloudy 48 9 46 8 94 94 W 14 22 30.15 1021 7 11.26538 N/A
9:16 am 09:16 Cloudy 48 9 45 7 87 87 WNW 16 26 30.18 1022 10 16.0934 N/A
9:37 am 09:37 Cloudy 48 9 45 7 87 87 WNW 14 22 30.18 1022 10 16.0934 N/A
9:57 am 09:57 Cloudy 48 9 45 7 87 87 WNW 12 19 30.18 1022 10 16.0934 N/A
10:16 am 10:16 Cloudy 48 9 45 7 87 87 WNW 13 20 30.21 1023 10 16.0934 N/A
10:37 am 10:37 Cloudy 48 9 45 7 87 87 WNW 12 19 30.21 1023 10 16.0934 N/A
10:57 am 10:57 Cloudy 48 9 45 7 87 87 WNW 9 15 30.21 1023 10 16.0934 N/A
11:16 am 11:16 Cloudy 50 10 46 8 88 88 W 10 17 30.21 1023 10 16.0934 N/A
11:37 am 11:37 Cloudy 50 10 46 8 88 88 WNW 10 17 30.21 1023 10 16.0934 N/A
11:57 am 11:57 Cloudy 50 10 46 8 88 88 WNW 10 17 30.21 1023 10 16.0934 N/A
12:16 pm 12:16 Cloudy 50 10 46 8 88 88 WNW 8 13 30.21 1023 7 11.26538 N/A
12:37 pm 12:37 Cloudy 50 10 46 8 88 88 W 9 15 30.21 1023 5 8.0467 N/A
12:57 pm 12:57 Cloudy 50 10 46 8 88 88 WNW 9 15 30.21 1023 7 11.26538 N/A
1:16 pm 13:16 Cloudy 50 10 46 8 88 88 W 12 19 30.21 1023 7 11.26538 N/A
1:37 pm 13:37 Cloudy 50 10 46 8 88 88 WNW 8 13 30.21 1023 7 11.26538 N/A
1:57 pm 13:57 Cloudy 50 10 46 8 88 88 WNW 8 13 30.21 1023 7 11.26538 N/A
2:16 pm 14:16 Cloudy 50 10 46 8 88 88 NNW 9 15 30.21 1023 10 16.0934 N/A
2:37 pm 14:37 Cloudy 50 10 46 8 88 88 NW 8 13 30.21 1023 10 16.0934 N/A
2:57 pm 14:57 Cloudy 52 11 46 8 82 82 NW 6 9 30.21 1023 10 16.0934 N/A
3:16 pm 15:16 Cloudy 52 11 46 8 82 82 WNW 7 11 30.21 1023 10 16.0934 N/A
3:37 pm 15:37 Cloudy 52 11 46 8 82 82 NW 6 9 30.21 1023 10 16.0934 N/A
3:57 pm 15:57 Cloudy 52 11 46 8 82 82 NW 6 9 30.21 1023 10 16.0934 N/A
4:17 pm 16:17 Cloudy 52 11 46 8 82 82 NW 8 13 30.21 1023 10 16.0934 N/A
4:37 pm 16:37 Cloudy 52 11 45 7 77 77 NW 8 13 30.21 1023 10 16.0934 N/A
4:56 pm 16:56 Cloudy 52 11 45 7 77 77 NW 7 11 30.24 1024 10 16.0934 N/A
5:17 pm 17:17 Cloudy 52 11 45 7 77 77 NW 10 17 30.24 1024 10 16.0934 N/A
5:37 pm 17:37 Cloudy 52 11 45 7 77 77 WNW 9 15 30.24 1024 10 16.0934 N/A
5:56 pm 17:56 Cloudy 52 11 45 7 77 77 WNW 7 11 30.24 1024 10 16.0934 N/A
6:17 pm 18:17 Mostly Cloudy 52 11 45 7 77 77 WNW 6 9 30.24 1024 10 16.0934 N/A
6:37 pm 18:37 Cloudy 52 11 45 7 77 77 WNW 6 9 30.24 1024 10 16.0934 N/A
6:57 pm 18:57 Cloudy 50 10 45 7 82 82 NNW 5 7 30.24 1024 10 16.0934 N/A
7:17 pm 19:17 Cloudy 50 10 45 7 82 82 NW 6 9 30.27 1025 10 16.0934 N/A
7:36 pm 19:36 Cloudy 50 10 45 7 82 82 WNW 5 7 30.27 1025 10 16.0934 N/A
7:57 pm 19:57 Cloudy 48 9 45 7 87 87 N N/A 30.27 1025 10 16.0934 N/A
8:17 pm 20:17 Cloudy 48 9 45 7 87 87 WNW 5 7 30.27 1025 10 16.0934 N/A
8:36 pm 20:36 Mostly Cloudy 48 9 43 6 82 82 NW 5 7 30.27 1025 10 16.0934 N/A
8:57 pm 20:57 Cloudy 46 8 43 6 87 87 NNW 5 7 30.27 1025 10 16.0934 N/A
9:17 pm 21:17 Cloudy 48 9 45 7 87 87 NNW 3 6 30.27 1025 10 16.0934 N/A
9:36 pm 21:36 Cloudy 46 8 43 6 87 87 NNW 3 6 30.27 1025 10 16.0934 N/A
9:57 pm 21:57 Cloudy 46 8 43 6 87 87 NNE 5 7 30.27 1025 10 16.0934 N/A
10:17 pm 22:17 Cloudy 46 8 43 6 87 87 N N/A 30.27 1025 10 16.0934 N/A
10:36 pm 22:36 Cloudy 46 8 43 6 87 87 NNE 5 7 30.27 1025 10 16.0934 N/A
10:57 pm 22:57 Cloudy 45 7 43 6 93 93 NNE 5 7 30.3 1026 10 16.0934 N/A
11:17 pm 23:17 Cloudy 46 8 43 6 87 87 N N/A 30.27 1025 10 16.0934 N/A
11:36 pm 23:36 Cloudy 45 7 43 6 93 93 N N/A 30.27 1025 10 16.0934 N/A
11:57 pm 23:57 Cloudy 45 7 43 6 93 93 N 3 6 30.3 1026 10 16.0934 N/A

Powered by AerisWeather